Weather in Mokrousovo

Russia / Kurgan Oblast     55°48′30″N   66°46′12″E
temp.,
°C
wind,
m/s
gust,
m/s
humid.,
%
clouds,
%
prec.,
mm/h
press.,
hPa
HPBL,
m
5 august, thu
thu523:00+19sse2260100 0.0 101420
02:00+18sse3459100 0.0 101244
05:00+18ssw3460100 0.0 101379
08:00+19ssw466786 0.3 1013213
11:00+21ssw457183 1.1 1013375
14:00+25ssw455730 0.5 1012991
17:00+28sse454929 0.6 10101227
20:00+22se477517 0.0 1009130
6 august, fri
fri623:00+19sse51181100 1.0 1008216
02:00+18sse5894100 7.9 1008154
05:00+18ssw4109354 8.7 1007258
08:00+21sw35816 0.3 1006329
11:00+25wsw465814 0.3 1006915
14:00+28w455147 0.0 10051381
17:00+28w344737 0.0 10051835
20:00+22nnw510806 0.4 1005323
7 august, sat
sat723:00+18nw4995100 3.9 1005240
02:00+17nw3699100 4.0 1005245
05:00+17nw51096100 5.2 1005510
08:00+17nw5796100 0.5 1006608
11:00+16wnw5897100 1.3 1006579
14:00+17nw51096100 0.2 1007567
17:00+20nw7976100 0.6 1007997
20:00+17wnw5119134 0.4 1007577
8 august, sun
sun823:00+15wnw5119034 0.4 1007440
02:00+15wnw61191100 0.0 1006617
05:00+15wnw61096100 0.1 1006655
08:00+15wnw4798100 0.3 1006359
11:00+18nne458970 0.9 1007542
14:00+18ne468797 1.3 1009605
17:00+20n567496 1.4 1010889
20:00+18nnw478439 0.1 1011198
9 august, mon
mon923:00+16nw35979 0.1 1011115
02:00+16nnw379710 0.0 1011139
05:00+15nnw48965 0.0 1012166
08:00+19nnw57845 0.0 1013333
11:00+23nnw56660 0.0 1013861
14:00+25nnw665921 0.2 10141472
17:00+24nnw666277 0.3 10151169
20:00+20nnw488316 0.0 1016203